Weather History for Wellsville, NY

Change the Weather History Date:

Sunday, November 11, 2012

  Actual Average (KBFD) Record (KBFD)
Temperature  
Mean Temperature 60 °F 39 °F  
Max Temperature 69 °F 47 °F 69 °F (2012)
Min Temperature 51 °F 31 °F 10 °F (1957)
Degree Days  
Heating Degree Days 5 22  
Month to date heating degree days 220  
Since 1 July heating degree days 1213  
Cooling Degree Days 0 0  
Month to date cooling degree days 0  
Year to date cooling degree days 193  
Growing Degree Days 10 (Base 50)    
Moisture  
Dew Point 34 °F    
Average Humidity 41    
Maximum Humidity 53    
Minimum Humidity 26    
Precipitation  
Precipitation 0.00 in 0.12 in 0.60 in (1983)
Month to date precipitation 1.28  
Year to date precipitation 38.58  
Sea Level Pressure  
Sea Level Pressure 30.31 in    
Wind  
Wind Speed 10 mph (South)    
Max Wind Speed 15 mph    
Max Gust Speed 30 mph    
Visibility 10 miles    
Events      
T = Trace of Precipitation, MM = Missing Value Source: NWS Daily Summary

Daily Weather History Graph

Daily Weather History Graph

Search for Another Location

Airport:

Trip Planner

Search our weather history database for the weather conditions in past years. The results will help you decide how hot, cold, wet, or windy it might be!

Date:

Astronomy

Nov. 11, 2012 Rise Set
Actual Time 6:57 AM EST 4:53 PM EST
Civil Twilight 6:27 AM EST 5:23 PM EST
Nautical Twilight 5:54 AM EST 5:57 PM EST
Astronomical Twilight 5:21 AM EST 6:30 PM EST
Moon 4:07 AM EST (11/11) 3:17 PM EST (11/11)
Length of Visible Light 10h 55m
Length of Day
9h 56m
Waning Crescent, 7% of the Moon is Illuminated
Nov 11
Waning Crescent
Nov 13
New
Nov 20
First Quarter
Nov 28
Full
Dec 6
Last Quarter

Hourly Weather History & Observations

Time (EST) Temp. Dew Point Humidity Pressure Visibility Wind Dir Wind Speed Gust Speed Precip Events Conditions
12:56 AM 52.0 °F 35.1 °F 53% 30.27 in 10.0 mi South 9.2 mph 20.7 mph N/A   Scattered Clouds
1:56 AM 54.0 °F 34.0 °F 47% 30.29 in 10.0 mi South 11.5 mph - N/A   Overcast
2:56 AM 54.0 °F 34.0 °F 47% 30.29 in 10.0 mi SSW 8.1 mph 18.4 mph N/A   Overcast
3:56 AM 52.0 °F 33.1 °F 49% 30.29 in 10.0 mi SW 6.9 mph - N/A   Clear
4:56 AM 52.0 °F 33.1 °F 49% 30.31 in 10.0 mi SSW 9.2 mph - N/A   Clear
5:56 AM 51.1 °F 33.1 °F 50% 30.32 in 10.0 mi SW 11.5 mph - N/A   Clear
6:56 AM 53.1 °F 33.1 °F 47% 30.35 in 10.0 mi SW 5.8 mph - N/A   Clear
7:56 AM 54.0 °F 33.1 °F 45% 30.37 in 10.0 mi South 8.1 mph - N/A   Clear
8:56 AM 57.0 °F 34.0 °F 42% 30.37 in 10.0 mi SSW 8.1 mph - N/A   Mostly Cloudy
9:56 AM 60.1 °F 35.1 °F 39% 30.36 in 10.0 mi SSW 12.7 mph 20.7 mph N/A   Clear
10:56 AM 64.0 °F 36.0 °F 35% 30.34 in 10.0 mi SW 11.5 mph 19.6 mph N/A   Clear
11:56 AM 66.9 °F 35.1 °F 31% 30.32 in 10.0 mi SSW 13.8 mph 20.7 mph N/A   Clear
12:56 PM 69.1 °F 35.1 °F 29% 30.30 in 10.0 mi SSW 8.1 mph - N/A   Clear
1:56 PM 68.0 °F 32.0 °F 26% 30.29 in 10.0 mi South 15.0 mph 21.9 mph N/A   Clear
2:56 PM 68.0 °F 33.1 °F 27% 30.28 in 10.0 mi South 10.4 mph 19.6 mph N/A   Clear
3:56 PM 66.0 °F 35.1 °F 32% 30.29 in 10.0 mi South 8.1 mph - N/A   Clear
4:56 PM 64.0 °F 35.1 °F 34% 30.29 in 10.0 mi SSE 10.4 mph - N/A   Clear
5:56 PM 61.0 °F 36.0 °F 39% 30.30 in 10.0 mi SSE 11.5 mph 18.4 mph N/A   Clear
6:56 PM 57.9 °F 35.1 °F 42% 30.31 in 10.0 mi SSE 11.5 mph - N/A   Clear
7:56 PM 57.0 °F 34.0 °F 42% 30.31 in 10.0 mi South 10.4 mph 18.4 mph N/A   Clear
8:56 PM 55.9 °F 33.1 °F 42% 30.30 in 10.0 mi SSE 12.7 mph 21.9 mph N/A   Clear
9:56 PM 55.9 °F 34.0 °F 44% 30.29 in 10.0 mi South 15.0 mph 23.0 mph N/A   Clear
10:56 PM 55.9 °F 35.1 °F 45% 30.26 in 10.0 mi South 12.7 mph 26.5 mph N/A   Clear
11:56 PM 57.0 °F 35.1 °F 44% 30.25 in 10.0 mi South 12.7 mph 29.9 mph N/A   Clear